Home   Weather   Ottawa   Past weeks

Flag for Canada Past Weather in Ottawa, Ontario, Canada — Yesterday and Last 2 Weeks

Now
37 °F

Overcast.


Feels Like: 37 °F
Forecast: 31 / 38 °F
Wind: 2 mph from Northeast

Location: Ottawa Int'L. Ont.

Current Time: Feb 22, 2017 at 10:45:10 am

Latest Report: Feb 22, 2017 at 10:00 am


Visibility: 10 mi

Pressure: 29.96 "Hg

Humidity: 93%

Dew Point: 36 °F

Location of OttawaLocation

Past Weather in Ottawa — Graph

°F

Ottawa Temperature Yesterday

Maximum temperature yesterday: 34 °F (at 1:00 pm)
Minimum temperature yesterday: 16 °F (at 4:00 am)
Average temperature yesterday: 27 °F

High & Low Weather Summary for the Past Weeks

 TemperatureHumidityPressure
High48 °F (Feb 18, 4:00 pm)100% (Feb 8, 1:00 am)30.43 "Hg (Feb 8, 1:00 am)
Low0 °F (Feb 10, 8:00 am)33% (Feb 10, 4:00 pm)29.19 "Hg (Feb 8, 2:00 am)
Average20 °F77%29.84 "Hg
* Reported Feb 7 9:00 am — Feb 22 9:00 am, Ottawa, Weather by CustomWeather, © 2017

Note: Actual official high and low records may vary slightly from our data, if they occured in-between our weather recording intervals... More about our weather records

Advertising

Ottawa Weather History for the Previous 24 Hours

Scroll right to see more
 ConditionsComfort  
Time TempWeatherWind HumidityBarometerVisibility
9:00 am
Wed, Feb 22
34 °FFog.5 mph100%29.97 "Hg3 mi
8:00 am32 °FIce fog.5 mph100%29.97 "Hg3 mi
7:00 am32 °FIce fog.2 mph100%29.97 "Hg3 mi
6:00 am32 °FOvercast.No wind100%29.96 "Hg15 mi
5:00 am32 °FOvercast.No wind100%29.96 "Hg15 mi
4:00 am32 °FIce fog.No wind100%29.95 "Hg4 mi
3:00 am32 °FOvercast.2 mph93%29.94 "Hg8 mi
2:00 am32 °FIce fog.5 mph93%29.96 "Hg4 mi
1:00 am32 °FOvercast.No wind93%29.95 "Hg8 mi
12:00 am32 °FOvercast.2 mph93%29.95 "Hg8 mi
11:00 pm
Tue, Feb 21
30 °FOvercast.3 mph100%29.95 "Hg8 mi
10:14 pm30 °FOvercast.5 mph100%29.96 "Hg8 mi
10:00 pm30 °FLight freezing rain. Overcast.3 mph93%29.96 "Hg8 mi
9:30 pm30 °FLight freezing rain. Overcast.7 mph93%29.97 "Hg15 mi
9:00 pm30 °FOvercast.8 mph93%29.98 "Hg15 mi
8:00 pm32 °FLight freezing rain. Overcast.3 mph87%29.99 "Hg15 mi
7:48 pm32 °FOvercast.5 mph87%29.98 "Hg8 mi
7:00 pm32 °FMostly cloudy.5 mph87%30.00 "Hg15 mi
6:26 pm32 °FOvercast.7 mph80%29.98 "Hg15 mi
6:00 pm32 °FLight freezing rain. Mostly cloudy.13 mph80%29.97 "Hg10 mi
5:07 pm34 °FLight rain. Overcast.5 mph65%29.99 "Hg10 mi
4:00 pm34 °FMore clouds than sun.8 mph60%30.00 "Hg10 mi
3:00 pm34 °FBroken clouds.10 mph56%30.01 "Hg10 mi
2:00 pm34 °FBroken clouds.13 mph51%30.02 "Hg15 mi
1:00 pm34 °FPartly sunny.7 mph56%30.07 "Hg15 mi
12:00 pm30 °FBroken clouds.8 mph55%30.11 "Hg15 mi
11:00 am28 °FBroken clouds.12 mph55%30.14 "Hg15 mi
10:00 am27 °FBroken clouds.10 mph59%30.20 "Hg15 mi
Weather by CustomWeather, © 2017

See weather overviewHow to use our weather pages